GFSFLT1_700_spd_045.txt.gz
Wind_Speed
9 12 14 17 19 21 20 23 23 19 17 18 29 37 20 23 35 34 32 24 22 16 14 13 9 11 10 10 13 12 15 16
7 7 10 13 14 15 23 26 27 25 25 26 26 30 35 40 35 33 25 22 18 17 16 13 10 14 12 13 13 14 19 19
5 6 7 9 11 13 17 17 20 25 26 30 31 32 33 31 26 21 16 17 18 17 16 13 13 15 15 15 17 20 23 23
8 6 6 6 8 10 13 15 16 18 23 25 24 21 20 20 17 15 14 16 15 14 18 14 14 19 21 21 21 23 26 27
12 12 10 8 9 9 10 11 15 18 19 20 19 18 18 15 15 15 17 18 18 16 20 20 18 20 23 23 28 25 33 28
3 12 12 11 11 11 11 12 15 14 13 15 15 16 15 15 18 20 22 19 21 21 21 20 21 22 23 26 27 29 28 30
9 6 14 16 16 16 16 16 15 15 14 14 15 15 14 16 19 21 23 23 21 23 20 21 21 23 27 29 27 28 33 27
14 13 13 20 21 22 21 21 20 20 19 18 15 8 7 11 11 16 21 27 26 27 20 21 23 27 32 31 33 28 32 26
19 13 13 15 19 22 24 25 22 20 20 18 14 15 6 11 12 16 15 10 18 19 21 25 28 32 31 31 31 31 26 25
26 23 21 16 18 20 23 24 25 24 20 19 19 18 22 18 14 15 15 13 10 17 24 24 24 26 27 29 30 28 29 30
25 30 28 21 26 28 28 25 23 26 25 25 25 23 26 24 23 20 16 17 18 17 19 22 23 25 27 28 28 30 32 31
10 27 31 33 27 20 24 28 28 35 27 23 25 27 33 31 24 25 20 21 21 21 23 24 25 27 28 29 29 32 33 40
16 19 16 28 27 24 28 30 31 24 19 24 26 26 27 30 29 26 23 24 21 22 25 28 30 30 30 31 32 35 39 33
19 17 13 14 18 25 20 29 31 27 23 25 24 24 26 20 22 24 24 22 22 25 27 30 32 33 34 33 33 37 37 38
19 19 18 19 17 17 22 25 26 24 24 22 25 26 21 16 19 22 22 22 23 27 30 32 34 35 37 37 38 34 38 32
17 18 21 21 17 19 20 21 24 27 28 27 22 22 19 19 21 22 23 24 27 30 33 35 37 38 36 35 35 39 35 36
24 24 24 28 27 23 23 23 23 26 25 22 20 21 21 23 24 24 26 29 31 34 35 35 35 32 34 38 34 33 38 39
26 27 26 25 31 28 23 25 24 25 29 30 27 27 27 25 25 28 31 33 31 32 32 32 32 34 34 32 34 34 33 33
29 30 31 31 31 29 26 24 28 30 33 34 31 27 27 28 31 28 28 30 30 30 30 32 33 33 33 32 32 31 30 30

GFSFLT1_700_spd_048.txt.gz
Wind_Speed
8 10 8 9 10 5 31 23 37 32 23 29 29 19 43 33 34 26 49 47 34 29 26 20 17 12 8 8 9 9 10 12
5 6 8 6 10 14 11 28 23 27 23 23 31 25 28 41 28 27 34 38 31 28 23 20 17 10 10 10 12 12 14 17
6 7 6 7 9 11 17 18 17 17 19 23 23 20 23 28 31 34 34 32 30 26 22 18 13 13 13 13 13 15 18 21
7 5 6 7 8 9 14 18 19 21 23 24 26 27 29 36 32 28 27 26 25 25 21 18 17 18 15 15 16 17 21 25
13 9 5 7 8 11 11 11 13 13 18 21 23 26 27 23 20 20 22 27 30 24 21 22 21 19 18 16 18 21 23 26
12 12 9 8 7 7 11 14 15 16 14 16 17 19 19 23 24 24 26 27 25 24 23 25 24 20 18 20 22 24 27 27
8 9 14 14 13 12 12 11 11 14 16 17 17 15 17 19 19 20 20 20 21 22 23 23 22 20 20 21 22 27 29 28
10 13 16 20 19 17 15 14 14 14 15 16 15 17 21 17 14 16 17 18 20 23 27 25 24 21 22 22 25 29 29 27
18 11 9 15 19 20 20 18 17 17 15 14 15 15 17 11 13 14 12 15 13 18 22 24 26 23 24 25 28 27 30 26
20 18 16 13 16 20 20 19 20 21 20 21 20 20 22 18 15 13 15 13 14 12 19 21 22 24 28 28 26 27 27 31
24 23 22 22 18 17 17 20 21 19 20 24 27 28 29 30 24 22 18 15 14 16 17 18 21 25 26 25 25 27 29 28
16 19 26 23 25 24 22 22 29 28 26 27 30 33 30 34 33 31 25 22 22 21 20 23 25 26 25 27 28 30 31 30
18 16 19 22 30 31 31 22 25 23 24 21 26 28 30 34 27 31 37 37 25 29 26 26 26 27 29 30 32 33 33 34
19 18 18 14 21 29 29 25 26 25 28 30 23 29 25 22 23 22 10 17 26 31 28 27 28 29 31 33 34 34 37 40
23 22 23 19 16 16 19 19 21 21 25 33 31 26 21 22 20 22 20 22 26 29 27 28 30 31 33 35 37 37 39 40
26 27 24 21 19 19 20 21 22 19 22 24 28 24 22 19 18 20 21 23 26 28 28 31 32 34 37 39 40 39 42 38
27 33 26 26 25 25 20 22 22 23 24 25 26 25 23 21 23 25 26 23 26 28 30 32 36 38 37 39 41 39 37 41
21 33 32 32 27 26 30 28 22 24 25 25 25 26 26 26 26 27 26 24 27 32 35 37 37 37 38 37 36 36 37 33
23 28 28 29 30 29 30 31 24 24 24 27 27 29 31 30 29 29 28 30 33 34 34 35 36 35 34 34 35 35 35 34

GFSFLT1_700_spd_051.txt.gz
Wind_Speed
6 6 6 9 7 6 25 31 23 23 19 20 34 38 43 44 46 43 44 41 38 34 30 26 26 21 17 14 14 12 12 12
5 6 7 10 13 9 21 20 31 17 26 25 30 31 36 42 48 46 35 39 36 37 32 31 31 21 18 15 13 11 10 12
3 3 5 8 11 14 7 29 31 23 20 28 24 31 34 30 43 41 29 35 40 33 29 31 26 21 19 16 12 11 11 13
4 3 1 5 8 10 11 9 14 14 24 26 24 38 36 27 35 35 34 31 41 37 34 28 25 21 19 16 14 12 13 17
8 6 1 1 4 5 7 9 10 10 15 24 29 30 32 31 33 32 33 34 37 37 33 27 28 25 20 18 18 17 18 19
4 7 6 6 4 4 5 5 6 9 12 15 20 22 26 29 31 34 36 36 34 33 29 27 30 25 23 23 23 21 20 22
7 9 15 13 12 10 8 7 7 6 7 9 14 20 22 22 24 25 27 26 25 27 24 30 29 26 25 28 29 23 22 22
13 10 11 16 16 13 12 10 9 9 8 8 8 9 14 15 16 18 21 22 23 22 25 29 29 27 29 32 25 22 23 27
14 13 12 12 14 17 16 15 14 11 10 10 11 14 15 16 18 19 18 21 23 24 27 31 33 31 33 24 23 25 26 29
16 15 17 17 15 15 18 18 17 16 14 13 14 16 18 19 22 22 21 21 23 24 23 25 24 25 25 27 28 28 28 30
16 17 19 20 21 17 17 18 19 18 19 19 19 20 20 21 23 23 23 23 25 24 24 23 22 26 28 28 28 29 29 29
9 10 12 15 22 23 21 22 21 17 20 21 22 23 26 27 30 33 34 29 30 30 27 25 24 25 27 30 31 31 30 31
14 12 12 11 15 21 26 26 24 21 22 25 25 24 24 26 29 34 34 39 42 41 45 32 27 30 31 33 33 33 34 34
16 15 16 15 13 14 20 26 26 25 26 26 27 31 23 27 30 34 36 36 35 21 34 33 33 31 32 35 34 35 37 38
18 19 19 17 19 16 15 19 18 23 27 27 32 34 33 27 29 27 26 25 24 19 25 32 32 32 37 37 35 38 40 41
23 25 21 22 24 22 16 14 13 15 21 25 28 31 36 38 35 29 28 33 31 26 28 30 32 33 36 36 37 40 41 42
31 26 26 27 29 27 20 16 16 18 21 25 26 29 29 30 34 30 30 28 28 29 30 32 32 33 34 38 41 44 46 43
23 23 27 25 29 29 22 21 18 23 26 27 27 27 28 31 32 30 32 32 30 30 30 30 33 36 39 42 45 42 41 42
24 24 25 23 24 28 24 24 23 25 29 29 27 26 27 29 32 31 31 30 30 32 33 36 37 39 41 39 39 41 42 41

GFSFLT1_700_spd_057.txt.gz
Wind_Speed
6 4 4 4 3 7 16 27 28 27 24 23 20 26 36 29 37 41 39 41 37 32 28 25 25 21 17 17 13 11 14 18
5 3 3 5 6 8 17 27 27 29 25 21 29 26 34 32 33 36 37 38 37 34 31 28 28 23 19 18 17 17 17 19
9 5 3 4 8 12 11 27 28 25 26 22 28 24 39 39 37 36 39 37 38 37 36 32 28 27 23 22 22 17 18 20
9 9 3 1 7 12 7 15 27 22 20 29 31 32 41 42 42 40 40 41 44 44 39 38 35 31 26 23 23 19 20 21
8 9 6 2 3 8 9 5 16 29 16 20 27 29 26 35 37 47 47 49 50 51 48 50 39 31 32 27 24 21 23 23
7 9 10 6 2 4 7 9 8 14 19 24 25 29 26 35 33 48 38 49 50 52 52 33 37 36 28 33 28 24 26 27
11 9 11 9 6 5 5 5 8 7 9 13 17 28 28 32 29 29 42 39 32 44 48 29 34 35 31 31 30 30 29 31
15 8 4 7 7 6 6 6 6 6 5 6 8 16 27 32 38 26 34 38 34 34 31 28 28 34 36 35 35 34 33 35
19 12 9 7 6 7 8 8 8 8 7 6 5 8 10 17 25 25 34 28 31 24 35 34 33 38 40 42 39 37 39 41
20 17 14 11 7 4 7 9 10 10 10 9 8 8 11 13 15 17 18 21 21 24 26 29 31 33 35 37 40 42 45 43
17 20 19 17 15 13 12 10 13 14 15 15 13 13 13 14 16 17 17 19 21 22 25 29 31 34 37 40 42 42 44 47
14 18 18 18 19 20 20 19 16 17 21 20 20 18 17 18 18 19 20 22 24 26 29 32 35 37 39 42 43 44 43 39
13 12 13 16 14 17 21 20 20 18 19 21 21 20 23 23 25 24 27 28 28 31 33 35 36 38 38 41 46 44 43 43
11 14 15 18 14 12 13 15 19 23 25 25 24 22 25 27 27 27 26 33 33 37 37 39 40 42 46 46 48 52 53 45
14 15 16 17 16 13 13 10 12 21 23 28 28 26 26 27 28 29 28 37 34 33 41 41 43 47 47 47 45 49 43 46
23 22 19 20 19 18 16 17 17 17 18 21 23 23 22 23 26 27 27 30 38 36 37 47 39 44 42 41 38 38 35 43
20 25 25 21 22 20 17 19 22 22 19 16 15 17 16 16 18 22 27 29 32 37 44 45 41 35 34 41 36 34 34 34
29 26 28 30 26 28 28 25 23 25 25 21 21 23 21 21 22 23 26 30 31 33 33 38 45 41 32 32 39 38 34 40
27 23 28 30 33 33 29 29 24 25 30 28 25 24 23 25 27 25 26 30 32 32 32 34 35 36 34 35 36 39 39 41

GFSFLT1_700_spd_060.txt.gz
Wind_Speed
11 9 8 6 3 3 9 15 21 17 16 15 13 36 36 44 41 48 44 47 54 36 30 27 25 24 22 20 16 15 15 16
13 11 9 7 8 9 10 17 23 25 18 16 18 19 36 38 35 39 49 43 36 34 33 30 27 26 21 19 17 14 15 15
11 12 10 9 8 12 15 17 24 28 23 24 19 19 23 33 32 39 40 43 37 37 36 33 28 27 25 23 21 18 17 17
12 11 12 9 7 9 10 8 19 24 26 24 22 29 26 30 33 35 35 43 42 40 37 33 29 28 28 25 22 20 20 19
12 11 11 10 7 5 5 1 17 22 22 26 28 26 28 27 33 35 38 46 45 45 40 37 36 32 31 29 25 26 23 21
13 10 13 11 8 5 1 6 10 19 26 23 28 30 29 30 38 38 42 42 46 47 45 40 39 40 42 38 36 31 24 24
16 14 11 10 10 7 3 5 9 10 15 19 20 29 30 32 40 34 42 44 47 50 45 48 46 46 48 43 46 37 27 26
18 14 9 8 10 9 7 6 8 10 9 8 10 15 23 28 30 27 30 39 45 43 42 44 47 47 45 41 36 32 29 32
17 17 13 10 11 11 10 9 8 8 9 10 10 9 11 25 31 29 27 21 27 33 34 30 36 35 36 34 43 38 36 38
19 20 17 14 10 9 11 10 10 10 9 9 10 10 10 10 17 27 30 29 29 34 29 40 29 35 32 33 41 42 41 42
20 19 20 17 13 11 11 12 13 13 13 12 12 10 11 12 13 12 15 19 23 26 26 28 39 35 36 38 42 43 44 44
19 18 20 19 20 19 18 17 16 15 18 18 17 16 16 16 15 15 15 17 20 22 24 27 30 34 35 38 39 40 44 45
16 19 19 19 19 21 20 21 23 22 19 23 24 23 22 21 20 19 19 18 20 21 24 27 29 33 36 39 41 41 43 46
6 11 11 9 15 19 17 18 19 24 26 25 26 29 30 28 26 24 24 24 25 28 30 30 33 35 38 40 42 43 45 46
9 9 12 15 17 23 19 17 15 16 22 26 30 28 28 28 24 29 29 28 28 30 34 34 39 39 42 43 45 47 52 53
18 19 20 21 19 22 23 22 22 20 18 18 23 29 31 32 33 32 32 34 34 36 39 43 45 39 44 46 47 51 50 54
15 20 20 22 25 24 29 27 24 24 26 23 22 25 29 33 33 33 33 33 33 35 39 41 42 47 47 46 52 56 45 51
31 26 26 24 26 28 26 30 30 25 24 28 29 26 25 26 27 25 27 27 27 32 37 40 43 47 53 56 55 53 50 45
30 34 36 31 32 33 33 33 34 34 33 30 33 33 30 30 29 29 30 31 31 31 33 36 37 39 41 43 46 54 57 48

GFSFLT1_700_spd_063.txt.gz
Wind_Speed
12 10 11 9 6 6 6 12 15 17 18 14 10 14 24 41 41 33 41 37 40 39 36 34 31 28 27 26 25 20 20 19
15 11 10 11 10 8 9 13 17 21 18 17 14 14 33 40 32 34 45 45 44 52 41 34 30 26 27 24 21 21 21 19
16 13 12 12 12 12 12 13 20 24 22 16 13 10 30 35 34 36 44 43 43 42 41 37 32 35 29 27 26 23 22 20
16 14 13 13 12 12 14 14 14 21 27 24 21 18 30 33 35 34 35 52 47 47 42 39 39 30 32 29 27 24 22 21
15 14 13 13 13 11 12 12 8 18 21 26 27 20 24 19 24 31 35 32 41 56 54 47 38 37 34 31 30 28 26 29
15 14 12 14 13 11 8 8 3 13 18 21 27 23 23 24 25 28 30 35 37 47 48 44 45 43 37 34 35 36 33 29
18 16 13 12 12 11 8 4 3 9 12 17 18 22 24 27 30 30 31 33 39 40 43 48 45 46 39 40 39 37 37 34
20 17 14 12 12 11 9 6 3 5 8 13 17 17 24 29 33 27 31 33 38 39 49 47 49 45 43 41 41 38 40 38
19 17 17 14 13 12 10 9 7 6 7 9 12 15 17 27 32 34 30 29 30 35 45 43 48 51 39 40 42 47 46 48
19 19 18 18 14 11 10 10 10 9 9 9 8 10 12 14 18 31 29 26 30 27 38 41 42 41 43 34 36 45 46 42
21 21 19 21 17 14 12 10 9 11 11 11 11 10 10 11 13 20 28 30 30 28 28 31 37 40 38 33 35 40 39 38
19 20 18 23 21 18 14 13 13 13 13 14 15 14 13 13 13 13 15 21 23 26 27 30 33 32 34 43 41 41 42 43
12 17 18 21 23 21 19 19 20 20 19 18 18 19 19 18 16 15 16 16 19 21 22 24 26 27 29 32 34 36 37 39
1 12 18 17 20 22 22 22 20 20 23 24 23 23 24 24 21 21 21 21 22 23 24 25 26 27 30 33 34 34 37 39
5 4 5 7 9 12 15 21 20 20 20 21 24 27 26 25 28 29 28 27 28 28 28 29 28 29 32 35 36 36 42 43
3 6 10 13 16 17 18 18 26 24 23 21 18 18 27 30 31 31 32 31 32 33 33 31 30 32 35 39 42 42 42 46
18 20 20 12 13 19 22 24 23 29 29 27 26 24 23 26 33 36 36 37 35 35 35 35 36 39 42 43 43 45 49 51
25 22 21 23 24 25 24 27 30 29 33 31 31 32 31 30 30 34 37 40 40 38 36 37 38 40 41 43 44 47 50 55
33 30 26 29 31 31 33 36 34 35 32 34 33 32 32 35 37 34 33 37 36 38 39 37 36 33 34 35 38 43 47 50

GFSFLT1_700_spd_066.txt.gz
Wind_Speed
19 14 13 12 8 8 9 10 12 12 17 18 17 16 14 19 30 29 33 41 39 45 41 28 35 30 31 30 28 27 23 21
21 15 14 13 8 9 9 13 15 14 17 19 18 11 8 17 19 35 32 36 37 56 45 43 37 32 31 30 29 27 24 22
22 16 13 13 12 9 11 13 16 16 18 18 14 11 7 13 31 35 27 36 34 45 50 44 36 34 33 30 28 28 22 22
25 17 14 13 13 9 10 13 16 14 19 19 15 16 9 23 31 33 24 26 33 47 54 46 40 36 35 30 29 34 26 23
24 21 13 12 12 9 9 11 13 10 14 20 19 17 11 14 21 28 32 25 28 43 44 46 43 40 36 38 40 32 29 28
23 24 14 13 11 10 9 7 10 6 9 19 25 22 16 17 16 20 24 29 28 29 37 43 41 41 42 41 39 34 33 32
21 25 18 14 10 8 9 5 6 3 3 8 16 25 23 22 23 22 21 29 26 33 36 44 45 46 47 46 38 35 39 33
19 25 22 16 11 8 8 6 4 2 1 7 11 15 21 20 20 26 26 24 26 33 34 46 52 52 47 49 40 37 32 34
17 24 24 16 13 9 8 7 5 3 1 2 7 13 18 17 20 25 27 24 23 27 29 35 52 53 53 46 43 42 38 43
15 22 24 17 16 11 8 8 7 6 4 4 3 6 9 12 15 23 26 29 24 29 27 33 35 42 49 43 48 40 44 39
20 17 20 17 18 15 11 9 8 6 6 6 6 6 7 8 11 15 18 30 28 30 32 30 34 42 46 42 42 43 50 39
13 18 19 19 20 19 14 11 8 8 8 10 9 10 10 9 8 8 11 19 28 28 31 30 31 35 39 37 43 45 41 36
7 13 16 21 19 21 17 17 15 15 15 15 15 14 15 14 11 10 12 11 15 20 23 25 26 28 30 32 34 38 40 42
3 6 10 18 16 21 21 20 20 22 22 20 20 20 20 18 17 17 17 17 17 19 20 21 22 25 28 29 32 35 37 36
9 8 4 9 10 7 12 16 18 22 25 22 20 19 20 23 22 23 24 23 24 24 25 25 26 28 30 30 30 32 33 34
6 8 7 11 8 13 15 14 15 15 22 24 23 21 18 19 23 26 27 29 30 29 29 30 31 31 30 32 32 33 35 37
18 17 14 15 12 12 13 18 23 20 19 19 27 28 27 23 23 24 28 30 32 34 34 33 34 36 34 33 35 37 37 39
24 19 21 28 26 25 25 23 21 25 25 24 26 29 33 31 31 30 28 30 33 36 39 39 40 38 35 36 37 40 41 41
17 21 24 24 26 26 24 25 28 27 28 31 32 32 34 35 34 33 32 34 36 36 37 42 45 42 42 41 40 42 44 44

GFSFLT1_700_spd_069.txt.gz
Wind_Speed
22 21 13 11 10 11 11 10 9 9 12 13 14 16 15 15 19 30 35 38 38 30 36 38 34 31 31 31 28 25 25 24
24 26 12 11 10 9 11 12 10 10 13 15 16 16 16 19 22 35 34 37 36 29 34 43 38 38 34 31 29 28 28 26
25 27 15 11 10 10 9 12 13 14 14 16 19 18 17 16 23 33 37 36 36 32 35 44 48 39 40 38 33 33 31 25
25 22 16 12 11 9 8 10 14 17 14 13 17 16 16 18 27 31 32 31 35 39 32 40 37 43 39 35 34 32 32 25
21 21 19 10 11 9 6 9 12 14 13 8 15 12 12 13 22 29 34 36 31 35 29 42 43 49 49 30 29 30 31 32
26 25 21 14 11 8 6 6 9 10 8 6 13 15 13 10 12 21 32 28 26 32 35 44 49 47 41 37 36 37 36 39
26 24 21 17 10 9 6 4 5 7 5 1 5 15 14 12 15 18 20 23 27 28 29 43 53 49 46 44 36 35 40 40
27 25 22 19 10 9 6 4 3 3 3 1 1 3 12 15 13 15 13 18 18 22 22 27 41 47 45 39 41 44 44 42
26 20 18 21 12 10 6 4 3 2 1 2 0 2 4 7 11 18 17 22 16 24 22 28 33 39 47 44 45 44 45 47
18 16 16 13 11 10 7 5 3 2 1 0 1 1 2 3 6 10 13 16 22 23 21 28 29 37 43 44 48 48 47 46
18 17 13 8 10 11 11 7 4 4 2 1 1 2 2 3 5 7 8 11 19 26 21 26 26 31 34 44 51 50 50 51
10 15 18 9 8 11 14 10 7 6 5 4 4 5 5 4 4 6 7 8 12 21 26 25 28 30 32 35 40 45 44 43
11 11 11 11 14 12 15 15 13 10 11 11 10 10 10 9 8 8 9 8 9 11 16 21 26 26 27 33 36 39 42 42
18 19 17 10 12 11 11 18 17 16 15 15 16 16 15 14 13 14 14 14 14 14 15 16 20 22 24 25 30 33 34 34
12 14 16 20 17 9 5 4 8 14 17 19 19 19 19 19 19 19 19 19 21 20 19 20 21 22 25 26 27 28 30 31
8 7 6 12 16 17 15 13 12 11 11 11 11 17 18 19 21 22 22 24 25 26 27 28 28 28 28 28 29 31 32 31
13 7 9 5 8 13 15 14 17 19 19 19 16 15 16 20 23 25 25 24 27 30 30 32 34 34 33 32 34 35 37 38
12 26 20 16 19 15 14 16 21 24 24 26 27 28 22 21 23 27 30 31 31 30 31 34 36 37 37 38 39 40 41 42
8 9 15 24 17 21 26 26 26 25 27 29 31 32 35 32 29 29 30 34 37 36 35 37 38 37 40 43 43 46 47 46

GFSFLT1_700_spd_072.txt.gz
Wind_Speed
29 22 19 18 16 15 13 9 7 6 8 12 13 13 11 18 24 29 28 33 36 32 31 34 37 37 36 35 32 31 29 29
24 24 20 14 16 14 14 10 7 8 9 12 16 15 17 17 18 21 27 29 34 36 37 36 37 39 38 35 34 33 32 31
25 22 12 11 16 14 13 12 9 9 10 11 15 17 17 17 22 22 31 37 41 33 37 35 40 38 38 38 37 36 34 33
23 20 14 10 14 12 13 11 9 11 10 9 11 17 17 23 22 21 35 39 40 38 36 31 42 43 42 38 36 35 35 34
24 17 14 13 10 11 11 11 8 9 8 4 7 12 14 15 20 24 39 37 35 36 34 32 36 44 45 43 40 38 32 34
30 17 11 13 11 10 10 9 8 6 4 0 9 14 14 11 14 25 33 36 37 33 34 38 36 46 49 47 47 44 34 33
30 21 16 17 16 11 9 8 6 5 2 3 7 13 13 13 13 15 27 25 29 31 33 41 33 42 45 44 39 43 38 30
31 25 21 21 17 10 10 8 5 4 2 1 6 9 13 13 12 11 8 26 31 25 25 35 38 43 42 41 44 36 35 39
29 26 22 20 13 10 11 7 4 4 1 1 4 7 8 9 12 11 11 9 18 22 25 22 28 39 45 41 38 43 34 33
24 26 21 12 11 10 11 8 5 5 3 2 3 5 6 5 6 7 13 16 19 20 17 20 22 25 31 45 46 44 43 44
18 24 15 8 7 9 13 10 7 7 5 3 2 3 3 2 2 3 6 10 18 22 22 24 24 25 28 35 41 44 48 48
21 17 12 11 5 7 11 13 10 8 9 5 3 1 1 2 3 4 4 7 12 19 26 28 23 28 29 31 36 41 46 49
23 22 18 13 7 4 5 14 14 13 12 10 8 7 7 7 6 6 7 8 9 13 17 25 29 28 32 36 38 40 40 40
22 26 27 22 19 15 11 6 14 15 15 15 14 13 13 13 12 11 11 12 12 12 13 14 19 24 28 32 35 36 37 39
19 25 27 26 24 21 15 10 12 12 12 11 9 12 18 20 19 18 17 17 18 18 18 18 19 21 23 25 28 31 33 35
10 15 17 18 21 17 13 11 10 10 12 14 11 10 10 9 13 20 22 22 23 23 24 26 25 25 26 27 28 30 31 33
5 5 4 3 3 8 16 17 17 19 18 20 18 17 14 15 16 14 15 22 27 28 29 30 31 31 31 32 33 35 36 38
7 13 9 7 8 5 6 10 13 18 21 25 26 24 24 24 25 24 24 23 22 26 30 34 36 36 36 39 40 41 42 42
8 8 4 8 13 14 16 17 21 23 24 27 29 30 31 31 30 31 30 30 29 29 28 28 33 39 41 43 44 47 49 49

GFSFLT1_700_spd_075.txt.gz
Wind_Speed
29 31 27 22 18 18 18 16 13 13 14 15 14 15 15 18 11 19 31 37 43 43 37 34 34 36 37 36 36 31 26 24
32 30 27 23 20 16 17 16 14 14 13 14 16 14 13 10 13 10 32 37 40 41 34 32 36 35 37 36 36 31 30 30
22 29 29 16 14 15 16 16 14 14 14 14 15 15 14 14 10 15 19 30 37 39 34 32 33 36 37 37 36 33 32 31
23 23 23 17 13 11 14 15 13 13 14 15 14 15 18 19 18 19 19 23 20 33 37 35 35 36 36 36 35 33 33 33
25 23 19 15 16 12 11 13 12 10 11 14 11 11 16 15 16 19 20 26 35 30 39 40 42 39 40 38 37 34 34 36
24 25 24 16 15 13 10 11 11 8 8 10 9 10 16 15 15 19 19 30 29 32 37 36 36 31 39 41 39 44 39 38
30 26 29 22 19 16 10 10 9 7 6 4 7 8 11 11 8 10 16 25 38 37 32 37 35 36 29 42 46 46 43 40
22 30 29 25 24 17 11 10 8 6 4 1 3 9 9 12 10 8 9 27 39 40 32 35 30 32 38 38 42 45 40 43
28 32 28 27 24 14 12 10 8 6 3 1 3 5 10 11 11 9 8 14 23 28 31 28 32 30 34 28 40 42 46 41
26 29 28 26 22 12 12 12 9 6 5 3 5 5 5 7 9 10 12 10 16 24 25 19 18 19 25 26 37 42 43 44
23 22 24 23 15 13 14 14 12 10 8 6 5 5 4 4 4 5 7 11 17 17 17 15 15 22 22 27 29 35 41 39
21 24 27 20 18 16 14 13 14 10 9 8 6 4 3 2 2 3 5 8 13 23 22 23 22 22 25 25 28 32 33 34
26 29 31 23 22 17 15 12 16 16 16 14 12 10 8 5 5 5 6 7 8 11 20 24 26 29 26 29 31 28 28 32
29 33 30 29 27 22 20 16 15 19 19 17 15 14 13 12 11 10 10 11 12 12 13 16 24 26 32 33 31 37 38 39
32 30 30 31 29 26 23 19 18 20 21 20 18 18 17 17 17 16 15 15 15 16 17 19 19 21 25 29 32 32 33 35
25 30 33 31 29 26 20 16 11 12 15 15 14 16 16 16 17 19 21 21 20 21 21 22 23 25 25 27 29 32 34 37
14 13 13 11 13 19 22 23 15 11 13 14 13 15 16 15 14 15 16 18 21 21 24 26 28 29 30 31 33 35 36 38
8 11 12 7 6 7 8 12 16 19 31 32 29 25 25 24 21 21 23 24 24 22 23 25 26 28 31 35 37 40 41 42
10 8 5 3 8 7 6 8 10 13 18 21 24 26 27 31 31 31 30 29 30 32 32 31 31 28 33 34 33 36 42 45

GFSFLT1_700_spd_078.txt.gz
Wind_Speed
23 21 21 21 24 20 18 19 18 19 18 18 16 15 17 19 20 23 23 22 29 40 38 36 40 40 37 35 31 31 28 28
26 24 24 25 25 21 17 18 17 19 17 18 17 18 17 19 16 14 17 24 31 43 35 43 39 38 36 35 34 34 33 32
31 27 24 25 25 20 16 16 16 17 16 16 18 19 19 18 11 11 6 22 23 34 36 42 38 37 37 38 36 36 34 32
28 25 17 21 21 17 14 14 15 15 16 15 16 17 18 16 12 6 4 18 18 26 44 38 36 35 38 38 36 36 35 33
28 21 19 18 18 17 15 13 13 13 14 15 15 13 12 13 11 5 6 9 25 18 37 36 38 38 38 36 36 35 33 32
25 20 18 18 15 17 15 12 10 10 12 14 11 7 9 14 13 13 13 15 17 23 21 38 38 37 35 35 35 34 32 33
26 27 25 23 18 18 17 13 10 8 9 11 9 5 7 12 12 12 15 19 22 22 27 26 28 37 41 37 36 35 35 39
18 22 31 24 24 22 18 12 9 8 7 8 6 5 8 10 9 8 8 11 21 26 27 31 34 32 30 33 40 46 43 40
22 19 24 28 26 23 21 14 11 8 7 5 4 2 7 7 9 7 8 7 18 21 29 28 30 29 28 25 27 31 37 39
28 25 24 26 26 23 21 13 12 9 7 5 4 3 4 5 6 6 7 6 11 22 23 26 29 28 33 28 32 32 29 41
28 29 28 31 28 26 23 17 15 13 11 9 8 8 7 6 5 5 6 8 7 18 22 20 20 21 19 20 27 23 31 36
24 29 28 31 29 26 25 21 18 16 13 13 11 10 10 8 7 6 5 6 8 11 16 18 16 16 18 22 23 25 29 31
23 27 27 27 28 27 26 23 20 18 17 17 14 12 11 9 8 7 6 5 5 8 15 18 21 20 20 23 24 26 25 27
25 23 25 32 33 30 28 28 24 23 21 19 17 15 13 10 8 8 8 8 8 8 10 14 20 19 25 24 27 26 29 32
19 24 27 34 34 30 31 28 23 20 21 20 19 18 16 14 13 12 12 13 12 12 13 14 16 19 21 25 28 27 35 35
17 20 27 35 33 33 29 27 23 16 18 17 15 16 14 13 14 15 17 18 18 19 19 18 19 21 22 23 26 28 31 33
11 14 20 25 24 28 24 18 16 17 12 11 9 9 10 10 14 13 13 13 13 14 16 20 23 25 26 26 27 29 31 32
21 22 18 17 13 12 16 19 21 23 19 16 18 23 20 17 18 18 17 19 19 21 22 22 21 25 25 26 29 32 34 35
15 16 17 13 13 11 7 8 14 18 16 13 16 23 26 29 29 31 31 29 29 27 28 28 30 37 36 37 33 33 32 30

GFSFLT1_700_spd_081.txt.gz
Wind_Speed
27 25 23 22 19 22 21 21 17 18 17 18 14 14 15 17 19 21 21 23 25 25 41 34 37 31 40 38 34 33 32 29
29 27 27 26 25 23 20 21 18 18 18 17 14 14 16 18 20 21 20 26 28 33 45 39 38 33 42 39 33 34 34 32
34 31 30 28 28 24 20 20 18 19 17 16 14 16 18 18 17 18 17 23 23 29 39 43 41 37 44 40 35 36 33 31
34 35 33 30 29 24 20 16 17 18 17 15 14 18 17 15 12 13 15 16 27 29 32 30 35 42 43 38 37 36 31 33
27 36 35 32 26 22 18 17 19 18 17 13 13 16 16 10 7 11 5 2 12 17 35 36 38 42 38 35 34 36 33 32
26 32 34 29 23 23 20 19 18 16 15 12 12 13 11 7 10 10 5 1 7 10 20 36 43 38 36 36 35 35 32 33
25 32 31 25 24 23 22 20 18 14 13 11 10 9 8 8 10 8 9 8 9 9 9 20 37 41 40 37 34 33 32 31
24 30 30 27 23 23 22 22 19 14 13 10 9 5 7 9 10 10 10 13 16 16 14 19 23 33 35 38 38 39 38 36
15 24 28 27 26 26 25 20 17 13 13 10 8 5 9 9 11 9 8 10 12 22 21 25 24 23 19 27 26 42 44 39
19 19 21 24 33 31 31 24 20 16 14 11 8 5 8 10 11 10 9 8 9 17 18 14 29 28 26 25 16 15 24 27
19 21 22 26 24 33 33 27 22 17 15 13 10 8 7 9 10 9 8 9 6 14 13 11 15 24 18 28 25 20 22 25
14 24 31 27 26 33 34 30 24 19 18 16 13 11 8 7 7 6 5 3 5 8 15 17 17 16 16 24 17 20 19 26
17 21 32 32 25 33 35 31 25 21 19 17 16 14 12 10 9 7 5 3 2 4 8 14 19 18 17 17 24 22 19 22
15 21 28 30 30 33 32 32 28 25 21 20 18 16 14 12 10 7 6 5 5 4 5 10 13 15 18 20 21 25 23 23
12 16 14 26 33 36 35 34 33 27 22 23 22 20 16 13 10 9 9 8 8 9 9 11 13 17 20 22 20 23 24 23
11 16 22 20 28 31 32 30 29 25 23 22 21 20 17 14 12 11 11 12 13 14 14 14 15 18 18 18 19 19 22 24
11 14 23 24 25 26 27 28 27 21 18 17 16 16 13 11 7 7 8 9 8 9 11 13 17 21 21 21 22 22 23 25
21 17 18 17 18 19 22 26 25 26 22 22 23 15 14 15 12 12 12 9 11 13 14 16 21 22 20 18 15 17 19 21
23 24 24 21 23 21 21 25 26 27 26 28 24 24 24 24 27 24 21 26 25 27 28 26 25 25 25 25 26 27 30 36

GFSFLT1_700_spd_084.txt.gz
Wind_Speed
37 36 32 33 30 28 28 26 24 23 15 14 17 18 14 14 14 17 21 23 25 27 28 31 29 35 31 29 40 31 33 33
30 36 33 35 34 32 31 27 25 23 17 15 17 16 16 16 16 18 22 26 28 29 31 34 35 39 33 29 37 36 35 34
27 36 36 36 35 33 31 28 25 22 20 17 18 17 17 17 18 20 23 25 29 32 36 40 37 44 34 34 39 34 36 35
26 30 39 38 35 34 31 29 24 21 20 19 19 19 17 16 18 20 21 24 26 30 30 37 33 44 40 34 39 38 38 37
24 31 40 40 37 35 32 29 25 21 19 19 21 18 15 16 14 15 15 17 22 27 35 30 41 43 39 38 41 40 39 39
23 26 38 41 41 36 31 29 26 21 21 19 19 15 15 13 12 15 13 10 6 16 20 30 35 35 43 37 43 43 37 33
22 27 35 41 44 41 34 30 26 22 20 18 16 12 13 10 11 14 15 12 5 4 10 21 29 27 37 38 45 39 35 39
19 26 31 35 39 37 32 28 25 23 20 18 14 12 11 11 11 11 10 9 11 7 4 7 24 26 37 39 38 41 34 35
16 18 27 31 33 31 32 29 26 24 21 18 14 11 10 10 11 11 10 10 10 11 11 8 14 31 42 39 41 40 34 37
17 13 25 31 32 29 29 28 26 23 21 17 13 11 9 10 10 10 10 10 11 15 19 17 13 20 18 38 38 35 34 39
19 15 21 30 31 27 31 31 28 25 20 17 14 11 9 10 9 9 8 8 9 11 18 16 13 21 26 17 20 16 16 13
18 19 23 29 32 31 30 35 32 28 24 18 16 12 11 11 12 9 6 5 6 5 15 18 13 19 26 19 20 25 20 15
18 18 21 29 25 29 30 36 33 30 24 19 17 15 13 13 13 12 9 6 3 2 5 9 12 15 18 16 16 25 20 18
15 20 25 34 33 36 31 36 35 32 28 21 20 18 16 15 13 11 10 8 6 5 4 4 4 9 12 14 17 17 23 23
11 19 27 31 31 35 32 36 36 36 29 23 23 22 20 17 14 12 12 11 10 9 9 10 11 10 11 14 15 13 14 19
13 13 15 18 24 27 33 38 42 41 32 24 24 24 23 20 18 17 15 13 12 13 14 15 15 17 16 15 17 18 19 20
20 16 18 19 22 27 32 38 39 35 28 23 24 25 24 22 20 16 13 11 10 10 12 15 15 15 16 18 20 22 24 25
22 19 23 21 22 28 29 32 33 29 25 25 25 24 23 21 20 16 15 13 13 12 12 13 13 13 14 15 16 18 20 20
19 25 26 27 26 24 28 30 30 28 28 26 26 27 26 20 17 18 17 15 15 17 17 18 20 22 20 20 21 25 27 29

GFSFLT1_700_spd_087.txt.gz
Wind_Speed
26 28 31 31 31 36 39 33 32 30 30 25 21 18 17 17 18 19 19 19 21 24 27 29 29 28 28 27 28 37 33 31
23 26 29 32 30 36 36 34 34 34 28 26 22 19 18 19 20 21 20 21 23 26 28 29 32 29 30 35 26 34 29 32
25 26 29 32 36 38 38 33 34 33 28 26 24 21 18 20 22 23 21 23 26 29 31 32 32 31 34 34 32 29 34 37
26 26 30 31 40 40 40 38 35 32 30 28 25 22 20 22 23 24 23 24 26 30 32 34 37 33 36 37 40 36 33 36
26 25 30 31 39 39 41 39 36 31 29 27 25 21 22 23 24 23 24 23 21 23 27 32 38 39 38 43 42 40 35 43
24 24 28 31 34 42 43 40 34 29 27 26 23 22 23 24 22 21 17 16 17 15 18 33 38 37 39 40 50 39 36 36
18 22 26 28 34 44 45 41 33 27 26 27 21 21 23 24 19 15 15 16 17 13 12 12 24 33 37 41 39 39 40 35
12 16 21 23 31 43 46 42 36 27 27 26 20 20 20 21 15 14 15 17 16 13 10 7 19 27 27 30 43 40 40 36
18 15 13 21 32 39 47 40 35 28 30 24 21 21 18 18 12 13 16 15 13 12 13 8 12 17 24 32 40 41 39 38
17 21 11 22 30 38 38 41 38 32 30 25 22 20 16 14 12 13 15 12 12 12 10 12 9 18 16 20 26 36 43 41
17 18 15 14 31 34 34 35 33 36 30 26 22 19 14 13 13 11 11 9 7 9 11 14 11 10 19 26 29 36 39 41
19 17 20 18 25 26 29 31 37 36 32 28 22 17 14 13 13 11 10 7 6 6 6 10 12 10 14 16 19 31 25 27
18 16 19 21 19 23 20 31 35 35 33 29 22 17 15 13 13 12 10 7 5 3 4 10 12 10 10 21 15 15 20 16
15 14 17 20 22 22 32 27 30 35 35 31 25 20 17 16 15 14 13 10 7 5 5 7 8 9 9 13 21 15 18 22
14 12 16 17 19 27 32 24 26 35 36 32 26 23 20 19 18 17 15 13 11 9 7 7 9 10 12 13 15 15 18 19
13 12 15 18 18 24 32 33 33 38 39 36 31 25 24 23 23 21 20 18 16 14 12 12 12 9 10 12 14 15 15 13
12 15 15 19 25 35 29 29 33 40 42 37 31 27 26 24 24 24 22 20 18 17 15 15 13 12 12 13 16 19 20 22
10 17 19 21 22 23 26 29 35 39 40 36 32 29 28 27 27 26 23 21 19 18 16 14 13 13 13 15 18 21 23 25
12 15 21 25 26 25 29 31 36 36 36 33 32 29 28 27 28 26 25 23 20 19 17 16 15 14 13 14 17 19 20 22

GFSFLT1_700_spd_093.txt.gz
Wind_Speed
26 29 31 28 27 42 44 40 37 34 32 32 31 29 29 25 24 22 21 21 21 20 19 21 19 21 23 24 24 22 29 28
35 34 27 26 24 26 49 40 38 36 37 32 33 32 31 26 25 24 23 22 21 19 20 22 21 23 25 25 24 26 24 18
40 30 32 33 28 25 44 42 34 35 37 37 31 31 28 28 27 26 24 23 21 20 22 22 24 26 28 28 28 28 24 18
27 23 25 33 26 29 40 40 37 38 40 38 35 30 28 31 27 25 25 25 23 22 24 23 24 28 31 30 28 29 28 22
30 23 24 30 27 36 39 38 41 39 40 40 35 31 29 27 25 25 27 26 24 24 23 22 24 27 31 30 29 30 30 27
24 29 28 26 28 36 37 37 35 39 43 39 35 32 29 29 29 28 26 24 23 24 23 22 21 23 26 30 30 31 32 30
24 27 33 28 28 33 35 34 37 36 36 43 39 32 28 28 29 26 24 23 23 23 20 19 20 19 19 25 30 32 33 33
22 25 30 31 29 29 34 34 33 31 31 33 36 31 28 28 28 25 22 20 22 20 19 19 20 20 22 20 28 35 37 35
27 24 24 27 34 30 34 33 35 32 28 27 30 25 26 27 26 23 18 19 20 19 17 18 21 22 23 24 27 39 37 33
14 31 28 26 28 28 27 23 32 33 27 28 28 27 27 25 24 19 18 19 18 17 16 17 21 21 22 17 25 33 40 38
12 15 29 29 24 26 25 31 33 30 28 29 29 29 24 25 23 18 17 18 16 17 15 17 18 16 16 12 21 20 32 34
7 17 19 21 24 25 28 21 20 23 26 28 28 27 24 28 24 18 17 15 14 17 14 15 16 13 10 13 10 19 25 23
8 10 22 22 21 20 22 26 23 24 27 25 30 27 26 28 22 20 18 13 13 16 11 11 11 13 11 6 10 17 20 26
12 6 13 20 23 25 28 32 34 38 34 31 31 30 28 28 24 22 19 12 13 13 10 8 10 11 12 8 7 9 10 16
11 9 9 13 16 16 15 15 21 26 34 30 31 33 31 28 27 23 22 17 16 14 11 8 6 9 15 16 14 14 16 20
8 11 10 13 12 13 13 15 20 25 27 35 29 30 33 32 28 24 22 20 16 14 12 9 8 6 7 12 20 17 18 21
8 10 9 13 13 15 16 20 20 22 29 28 27 31 24 27 27 28 26 23 20 18 16 14 12 9 8 10 15 22 21 22
10 16 9 12 14 16 14 21 17 21 19 17 22 25 27 30 35 31 32 26 25 23 21 19 17 16 14 14 15 17 20 21
14 16 17 6 15 18 19 22 18 19 20 33 28 29 27 31 35 33 32 31 30 27 25 24 23 22 21 20 21 21 22 21

GFSFLT1_700_spd_099.txt.gz
Wind_Speed
39 39 37 33 33 40 42 49 49 44 40 38 37 34 31 28 33 32 30 27 22 19 17 16 19 18 17 19 22 23 27 25
41 44 47 37 35 36 39 43 39 39 44 46 42 42 33 31 34 34 34 32 28 23 19 17 18 17 16 18 21 23 26 28
45 45 43 44 41 36 36 40 41 42 38 39 45 40 38 33 33 34 31 31 31 26 22 20 19 18 18 20 21 24 26 28
36 43 39 36 47 44 41 37 39 44 41 38 41 45 43 37 34 32 28 30 31 28 25 22 20 19 18 20 24 26 27 27
26 30 43 43 40 50 49 46 39 35 41 43 41 45 44 41 34 24 22 26 31 29 27 23 22 22 21 21 25 28 28 30
28 27 30 36 31 42 45 50 49 44 39 33 38 40 41 37 34 28 26 27 29 31 27 23 24 23 22 23 25 27 29 30
30 30 23 27 29 30 38 41 42 45 43 35 36 37 43 36 34 32 25 28 31 31 27 24 25 26 21 24 25 25 28 30
35 38 26 23 24 26 31 35 37 40 42 30 32 38 38 33 30 32 26 28 31 30 25 25 26 27 20 24 25 26 27 30
34 35 27 25 24 24 26 28 27 32 33 33 30 34 35 35 34 34 27 27 30 29 28 25 26 26 20 24 24 25 27 29
21 37 28 36 33 25 23 28 31 34 34 33 35 34 35 36 35 33 29 30 29 30 27 24 25 23 19 24 25 26 29 30
9 16 27 29 27 25 22 22 29 28 32 34 35 37 35 35 34 33 32 31 29 30 24 25 23 21 18 22 26 29 32 35
10 9 13 16 16 19 20 20 23 28 30 30 37 39 34 35 31 29 29 29 30 28 24 24 20 19 17 23 27 26 27 30
12 11 11 12 14 15 20 19 21 25 26 27 26 36 38 34 31 25 26 29 30 25 24 22 19 16 19 23 25 21 24 27
13 12 11 10 12 14 19 22 21 19 23 24 23 33 42 38 36 25 26 27 29 26 24 21 18 16 19 21 19 20 21 20
10 9 10 10 9 13 16 19 22 24 21 19 18 17 25 21 22 24 26 26 26 26 23 20 18 16 19 18 14 17 20 19
9 9 10 8 7 5 11 17 20 21 20 14 16 13 13 18 20 24 25 23 24 24 22 18 18 17 18 16 14 17 15 16
9 11 13 9 7 7 6 8 12 11 13 18 21 19 21 23 22 22 26 22 22 21 17 17 18 18 18 17 13 12 12 14
10 11 14 10 4 6 8 9 11 15 15 24 17 23 29 30 30 26 27 23 21 20 19 17 19 20 19 18 15 13 15 13
12 14 16 16 7 1 7 13 12 19 23 16 35 34 33 20 25 27 26 27 26 23 20 23 23 21 20 19 19 18 17 18

GFSFLT1_700_spd_102.txt.gz
Wind_Speed
37 37 37 37 37 35 35 35 36 42 47 47 43 40 36 33 32 34 37 33 29 26 23 20 17 15 15 15 15 20 23 26
32 36 40 41 42 40 38 37 35 36 39 49 48 47 43 38 32 35 34 36 34 30 27 24 21 17 14 16 17 20 22 23
33 34 36 37 44 43 41 40 38 34 37 38 47 41 39 39 34 36 36 33 36 34 31 27 24 20 17 16 19 20 21 23
27 26 27 29 36 46 41 39 42 38 32 35 42 40 39 42 40 37 37 37 38 33 32 30 27 24 21 17 20 23 22 22
26 23 20 23 23 34 41 33 38 43 36 36 41 41 40 39 41 36 37 39 39 36 31 30 30 26 24 20 21 25 24 25
23 24 26 25 25 28 37 44 39 42 41 37 36 40 41 37 34 40 39 38 34 28 26 31 31 28 27 24 22 25 26 26
35 37 32 27 30 29 34 32 35 41 46 43 40 38 36 37 39 37 36 36 35 28 27 32 32 29 28 26 24 25 27 24
40 43 38 38 35 31 24 21 27 35 43 48 46 47 40 32 36 35 35 34 37 30 30 33 32 29 29 27 26 26 27 27
39 40 35 33 28 28 24 28 20 28 30 30 35 39 37 38 37 35 33 36 35 32 28 32 30 31 30 28 26 25 27 28
28 23 20 26 26 32 24 21 20 24 24 31 34 35 29 33 39 34 37 37 35 34 31 33 32 30 30 28 26 23 26 26
20 22 16 16 21 22 22 22 21 20 26 26 29 30 31 32 35 37 41 39 36 33 33 33 32 29 29 26 25 23 26 26
12 24 15 10 11 13 15 16 19 23 31 26 29 33 34 36 35 37 40 40 35 35 35 32 29 29 27 25 24 23 25 23
19 24 15 9 8 9 13 16 16 16 18 22 23 29 32 31 37 38 37 40 35 33 34 31 29 28 26 24 23 22 23 22
19 18 15 12 8 8 10 15 20 18 19 22 23 26 33 41 38 35 38 31 30 34 32 29 29 26 24 23 21 21 20 18
17 17 15 13 8 5 8 12 17 16 16 18 23 24 23 28 35 39 39 30 30 29 28 29 27 24 22 22 20 19 15 19
15 15 14 13 7 5 6 14 14 17 20 22 17 18 21 21 18 41 28 30 34 31 30 28 23 21 22 21 19 19 16 17
13 14 14 12 6 6 8 9 7 14 18 20 16 15 18 12 14 18 20 22 24 23 24 23 20 20 21 20 19 20 15 12
11 13 16 13 7 6 7 6 8 5 11 12 15 21 22 21 21 20 21 23 23 20 21 20 18 18 19 18 20 21 17 13
11 15 18 18 16 13 4 4 3 7 12 15 11 16 14 20 20 24 24 19 18 24 25 21 20 19 17 17 20 23 21 16

GFSFLT1_700_spd_105.txt.gz
Wind_Speed
32 32 33 33 36 38 39 36 38 39 43 49 50 46 45 41 37 33 31 33 39 35 31 27 24 21 18 17 17 17 19 21
26 30 32 34 34 37 41 41 40 37 39 38 44 52 52 48 45 38 34 32 37 38 35 32 27 25 20 20 19 18 19 20
23 27 32 35 35 35 38 45 43 42 40 39 37 39 48 53 49 45 39 35 35 39 39 37 32 28 25 23 21 19 20 20
17 19 22 27 33 34 34 37 45 44 42 40 41 37 42 49 51 47 42 36 34 38 41 41 37 32 29 26 24 22 22 20
21 19 18 18 23 28 29 30 37 45 43 43 44 41 40 40 49 43 38 41 38 40 40 41 39 36 33 29 26 25 24 23
26 26 25 27 29 27 29 28 34 38 43 38 43 43 37 35 39 40 41 44 41 39 39 39 40 37 33 32 29 28 27 26
26 31 36 34 39 35 32 31 28 32 45 46 39 43 39 34 39 39 38 31 43 42 37 39 40 35 34 34 31 29 29 29
32 38 42 44 35 36 39 37 31 29 36 43 44 45 43 40 34 37 39 38 37 43 39 35 31 36 33 35 33 31 30 31
37 40 39 36 35 28 29 30 32 29 24 38 40 47 47 44 40 32 33 38 35 37 39 32 29 32 34 34 33 33 32 31
32 26 24 27 26 24 23 26 27 27 22 27 33 43 45 48 44 40 34 39 39 41 39 37 35 34 32 34 33 33 32 31
26 27 24 24 24 16 14 19 25 25 23 28 30 35 38 37 38 38 39 41 43 41 39 37 39 34 33 35 34 32 31 30
26 28 22 22 22 16 12 13 17 22 21 22 28 29 32 31 34 35 35 38 39 40 39 37 36 34 35 34 33 32 31 28
24 28 22 27 20 16 12 11 11 19 20 26 27 22 25 32 33 34 35 39 39 42 39 38 38 32 36 35 33 30 29 27
23 25 23 21 17 13 11 7 11 14 16 26 32 22 23 22 27 32 32 35 42 44 41 38 34 33 36 34 32 28 27 26
22 23 22 20 14 9 9 7 7 14 19 14 16 19 17 24 20 22 26 33 36 40 39 35 41 35 37 34 27 25 25 26
20 17 16 14 11 7 7 8 14 9 13 19 9 19 18 17 20 23 30 39 42 51 43 42 41 38 36 29 26 25 24 23
12 12 13 14 10 7 7 7 8 12 12 10 11 15 16 17 19 28 35 33 51 35 34 39 37 39 30 26 24 22 21 21
6 11 15 16 14 12 6 8 5 5 7 7 15 14 13 18 14 10 18 32 36 26 32 37 34 31 26 24 22 22 22 20
8 12 15 18 20 21 18 11 7 6 2 7 10 11 14 16 17 20 23 15 24 22 26 31 30 22 21 22 23 21 21 20